INMARSAT 4-F2           
1 28899U 05044A   19258.77084674  .00000003  00000-0  00000-0 0  9990
2 28899   2.8990  27.3552 0003356 159.6743 148.8322  1.00272348 50787
BLOCK DM-SL R/B         
1 28900U 05044B   19257.74179952 -.00000027  00000-0  85043-4 0  9994
2 28900   2.6576 218.5725 7094571 203.3419  94.0952  2.50143963120917